When you browse on this site, cookies collect data to enhance your experience and personalize the content and advertising you see.
Visit our Privacy Policy to learn more. By continuing to use the site, you agree to this use of cookies and data.
  • In Hungary
  • List of Countries
  • For 7 days
  • Water Temperature
  • Weather Map
  • News
  • Weather Widgets
  • user-avatar
    Login

    Hourly Weather Seesen

    Today, 10 December, Tuesday

    Time Temperature Precipitation Wind Pressure Humidity
    00:00 +1°C° 0 mm 5 mps 741 mmHg 83%
    01:00 0°C° 0 mm 5 mps 743 mmHg 85%
    02:00 0°C° 0 mm 5 mps 743 mmHg 85%
    03:00 0°C° 0 mm 5 mps 744 mmHg 85%
    04:00 0°C° 0 mm 5 mps 745 mmHg 85%
    05:00 0°C° 0 mm 4 mps 745 mmHg 86%
    06:00 0°C° 0 mm 4 mps 746 mmHg 87%
    07:00 0°C° 0 mm 3 mps 747 mmHg 89%
    08:00 0°C° 0 mm 3 mps 748 mmHg 88%
    09:00 +1°C° 0 mm 3 mps 748 mmHg 87%
    10:00 +2°C° 0 mm 2 mps 748 mmHg 86%
    11:00 +2°C° 0 mm 3 mps 749 mmHg 83%
    12:00 +2°C° 0 mm 3 mps 749 mmHg 80%
    13:00 +3°C° 0 mm 3 mps 749 mmHg 76%
    14:00 +2°C° 0 mm 3 mps 748 mmHg 78%
    15:00 +2°C° 0 mm 3 mps 748 mmHg 80%
    16:00 +1°C° 0 mm 3 mps 747 mmHg 82%
    17:00 0°C° 0 mm 4 mps 747 mmHg 82%
    18:00 0°C° 0 mm 4 mps 746 mmHg 83%
    19:00 -1°C° 0 mm 5 mps 746 mmHg 84%
    20:00 -1°C° 0 mm 5 mps 745 mmHg 83%
    21:00 -1°C° 0 mm 5 mps 745 mmHg 83%
    22:00 -2°C° 0 mm 6 mps 744 mmHg 82%
    23:00 -2°C° 0 mm 6 mps 743 mmHg 79%

    Tomorrow, 11 December, Wednesday

    Time Temperature Precipitation Wind Pressure Humidity
    00:00 -1°C° 0 mm 7 mps 743 mmHg 76%
    01:00 -1°C° 0 mm 7 mps 742 mmHg 72%
    02:00 -1°C° 0.2 mm 7 mps 742 mmHg 71%
    03:00 -1°C° 0.2 mm 7 mps 741 mmHg 70%
    04:00 0°C° 0.2 mm 8 mps 740 mmHg 69%
    05:00 -1°C° 0.6 mm 7 mps 740 mmHg 73%
    06:00 -1°C° 0.6 mm 6 mps 740 mmHg 78%
    07:00 -1°C° 0.6 mm 6 mps 739 mmHg 82%
    08:00 0°C° 0.3 mm 5 mps 739 mmHg 84%
    09:00 0°C° 0.3 mm 5 mps 739 mmHg 87%
    10:00 0°C° 0.3 mm 4 mps 739 mmHg 89%
    11:00 0°C° 0.5 mm 4 mps 738 mmHg 90%
    12:00 +1°C° 0.5 mm 4 mps 738 mmHg 91%
    13:00 +1°C° 0.5 mm 4 mps 738 mmHg 92%
    14:00 +2°C° 0.6 mm 3 mps 737 mmHg 92%
    15:00 +2°C° 0.6 mm 3 mps 736 mmHg 93%
    16:00 +3°C° 0.6 mm 2 mps 736 mmHg 93%
    17:00 +3°C° 0.5 mm 2 mps 736 mmHg 94%
    18:00 +3°C° 0.5 mm 2 mps 735 mmHg 94%
    19:00 +3°C° 0.5 mm 2 mps 735 mmHg 94%
    20:00 +3°C° 0.4 mm 2 mps 735 mmHg 94%
    21:00 +3°C° 0.4 mm 2 mps 735 mmHg 94%
    22:00 +3°C° 0.4 mm 2 mps 735 mmHg 95%
    23:00 +3°C° 0.1 mm 2 mps 734 mmHg 95%

    Day after tomorrow, 12 December, Thursday

    Time Temperature Precipitation Wind Pressure Humidity
    00:00 +3°C° 0.1 mm 2 mps 734 mmHg 95%
    01:00 +3°C° 0.1 mm 2 mps 734 mmHg 95%
    02:00 +3°C° 0 mm 2 mps 734 mmHg 94%
    03:00 +2°C° 0 mm 2 mps 733 mmHg 93%
    04:00 +2°C° 0 mm 2 mps 733 mmHg 93%
    05:00 +2°C° 0 mm 2 mps 733 mmHg 93%
    06:00 +2°C° 0 mm 2 mps 733 mmHg 92%
    07:00 +2°C° 0 mm 2 mps 733 mmHg 92%
    08:00 +1°C° 0.1 mm 3 mps 733 mmHg 93%
    09:00 +1°C° 0.1 mm 3 mps 733 mmHg 95%
    10:00 +1°C° 0.1 mm 3 mps 733 mmHg 96%
    11:00 +1°C° 0.2 mm 3 mps 732 mmHg 94%
    12:00 +2°C° 0.2 mm 3 mps 732 mmHg 93%
    13:00 +2°C° 0.2 mm 3 mps 732 mmHg 91%
    14:00 +2°C° 0.1 mm 3 mps 732 mmHg 89%
    15:00 +1°C° 0.1 mm 3 mps 732 mmHg 87%
    16:00 +1°C° 0.1 mm 3 mps 731 mmHg 84%
    17:00 +1°C° 0 mm 3 mps 731 mmHg 86%
    18:00 0°C° 0 mm 3 mps 730 mmHg 87%
    19:00 -1°C° 0 mm 3 mps 730 mmHg 88%
    20:00 -1°C° 0 mm 3 mps 729 mmHg 87%
    21:00 -2°C° 0 mm 4 mps 728 mmHg 85%
    22:00 -2°C° 0 mm 4 mps 727 mmHg 84%
    23:00 -2°C° 0 mm 4 mps 726 mmHg 83%

    13 December, Friday

    Time Temperature Precipitation Wind Pressure Humidity
    00:00 -2°C° 0 mm 4 mps 724 mmHg 82%
    01:00 -2°C° 0 mm 5 mps 723 mmHg 80%
    02:00 -3°C° 0 mm 6 mps 721 mmHg 79%
    03:00 -2°C° 0 mm 7 mps 720 mmHg 77%
    04:00 -2°C° 0 mm 8 mps 719 mmHg 75%
    05:00 -2°C° 0.1 mm 7 mps 718 mmHg 77%
    06:00 -2°C° 0.1 mm 7 mps 717 mmHg 78%
    07:00 -2°C° 0.1 mm 7 mps 716 mmHg 80%
    08:00 -1°C° 0 mm 6 mps 716 mmHg 81%
    09:00 -1°C° 0 mm 6 mps 716 mmHg 81%
    10:00 0°C° 0 mm 5 mps 716 mmHg 82%
    11:00 +1°C° 0.1 mm 5 mps 716 mmHg 84%
    12:00 +1°C° 0.1 mm 4 mps 716 mmHg 87%
    13:00 +3°C° 0.1 mm 4 mps 716 mmHg 90%
    14:00 +3°C° 0 mm 4 mps 716 mmHg 90%
    15:00 +1°C° 0 mm 4 mps 717 mmHg 89%
    16:00 +1°C° 0 mm 4 mps 717 mmHg 89%
    17:00 +1°C° 0 mm 4 mps 717 mmHg 89%
    18:00 +2°C° 0 mm 3 mps 718 mmHg 90%
    19:00 +2°C° 0 mm 3 mps 718 mmHg 91%
    20:00 +2°C° 0 mm 3 mps 719 mmHg 92%
    21:00 +2°C° 0 mm 3 mps 719 mmHg 93%
    22:00 +2°C° 0 mm 3 mps 719 mmHg 94%
    23:00 +2°C° 0.1 mm 3 mps 720 mmHg 93%

    14 December, Saturday

    Time Temperature Precipitation Wind Pressure Humidity
    00:00 +1°C° 0.1 mm 4 mps 720 mmHg 93%
    01:00 +3°C° 0.1 mm 4 mps 721 mmHg 93%
    02:00 +2°C° 0.4 mm 5 mps 722 mmHg 91%
    03:00 +2°C° 0.4 mm 6 mps 722 mmHg 89%
    04:00 +2°C° 0.4 mm 7 mps 723 mmHg 86%
    05:00 +2°C° 0 mm 7 mps 722 mmHg 86%
    06:00 +2°C° 0 mm 7 mps 722 mmHg 85%
    07:00 +2°C° 0 mm 6 mps 722 mmHg 85%
    08:00 +3°C° 0.6 mm 7 mps 722 mmHg 84%
    09:00 +4°C° 0.6 mm 7 mps 722 mmHg 84%
    10:00 +4°C° 0.6 mm 8 mps 722 mmHg 84%
    11:00 +3°C° 0.1 mm 9 mps 722 mmHg 77%
    12:00 +3°C° 0.1 mm 10 mps 723 mmHg 69%
    13:00 +3°C° 0.1 mm 10 mps 724 mmHg 62%
    14:00 +2°C° 0 mm 9 mps 724 mmHg 64%
    15:00 +2°C° 0 mm 8 mps 725 mmHg 66%
    16:00 +2°C° 0 mm 6 mps 725 mmHg 68%
    17:00 +2°C° 0.5 mm 7 mps 726 mmHg 74%
    18:00 +3°C° 0.5 mm 7 mps 726 mmHg 80%
    19:00 +2°C° 0.5 mm 8 mps 727 mmHg 86%
    20:00 +1°C° 0.2 mm 8 mps 728 mmHg 85%
    21:00 +1°C° 0.2 mm 8 mps 728 mmHg 84%
    22:00 0°C° 0.2 mm 7 mps 729 mmHg 82%
    23:00 0°C° 0 mm 7 mps 730 mmHg 79%

    15 December, Sunday

    Time Temperature Precipitation Wind Pressure Humidity
    00:00 0°C° 0 mm 7 mps 731 mmHg 75%
    01:00 0°C° 0 mm 7 mps 731 mmHg 71%
    02:00 -1°C° 0 mm 6 mps 732 mmHg 74%
    03:00 -1°C° 0 mm 6 mps 732 mmHg 77%
    04:00 0°C° 0 mm 5 mps 732 mmHg 80%
    05:00 0°C° 0 mm 5 mps 732 mmHg 82%
    06:00 0°C° 0 mm 5 mps 732 mmHg 84%
    07:00 0°C° 0 mm 5 mps 732 mmHg 86%
    08:00 +1°C° 0.1 mm 6 mps 731 mmHg 86%
    09:00 +2°C° 0.1 mm 6 mps 730 mmHg 87%
    10:00 +3°C° 0.1 mm 7 mps 730 mmHg 87%
    11:00 +4°C° 0.2 mm 7 mps 730 mmHg 82%
    12:00 +4°C° 0.2 mm 8 mps 731 mmHg 77%
    13:00 +5°C° 0.2 mm 8 mps 731 mmHg 71%
    14:00 +4°C° 0 mm 7 mps 732 mmHg 71%
    15:00 +3°C° 0 mm 6 mps 733 mmHg 72%
    16:00 +3°C° 0 mm 5 mps 734 mmHg 72%
    17:00 +2°C° 0 mm 5 mps 734 mmHg 74%
    18:00 +2°C° 0 mm 5 mps 735 mmHg 76%
    19:00 +2°C° 0 mm 5 mps 735 mmHg 79%
    20:00 +2°C° 0 mm 5 mps 736 mmHg 78%
    21:00 +2°C° 0 mm 5 mps 736 mmHg 77%
    22:00 +2°C° 0 mm 5 mps 737 mmHg 77%
    23:00 +2°C° 0 mm 5 mps 737 mmHg 78%
    Show more